LRBO Weather Reports


Display with metric or nautical units.
time (UTC)temp
F
wind
direction
speed
MPH
gust
MPH
rain 1hr
in
rain 24hr
in
rain mn
in
humidity
%
barometer
mb
20260510170353 61 30 2.0 0.0 0.00 0.00 0.00 94 1014.0
20260510164853 63 30 7.0 0.0 0.00 0.00 0.00 88 1014.0
20260510163353 63 30 7.0 0.0 0.00 0.00 0.00 88 1014.0
20260510161853 63 30 7.0 0.0 0.00 0.00 0.00 88 1014.0
20260510160353 63 30 7.0 0.0 0.00 0.00 0.00 88 1014.0
20260510154854 61 300 11.0 0.0 0.00 0.00 0.00 94 1014.0
20260510153355 61 300 11.0 0.0 0.00 0.00 0.00 94 1014.0
20260510151853 61 300 11.0 0.0 0.00 0.00 0.00 94 1014.0
20260510150353 61 300 11.0 0.0 0.00 0.00 0.00 94 1014.0
20260510144853 64 70 7.0 0.0 0.00 0.00 0.00 40 1014.0
20260510143353 64 70 7.0 0.0 0.00 0.00 0.00 40 1014.0
20260510141854 64 70 7.0 0.0 0.00 0.00 0.00 40 1014.0
20260510140354 64 70 7.0 0.0 0.00 0.00 0.00 40 1014.0
20260510134854 66 60 7.0 0.0 0.00 0.00 0.00 68 1014.0
20260510133353 66 60 7.0 0.0 0.00 0.00 0.00 68 1014.0
20260510131853 66 60 7.0 0.0 0.00 0.00 0.00 68 1014.0
20260510130402 66 60 7.0 0.0 0.00 0.00 0.00 68 1014.0
20260510124920 63 70 7.0 0.0 0.00 0.00 0.00 83 1015.0
20260510123353 63 70 7.0 0.0 0.00 0.00 0.00 83 1015.0
20260510121850 63 70 7.0 0.0 0.00 0.00 0.00 83 1015.0
20260510120457 63 70 7.0 0.0 0.00 0.00 0.00 83 1015.0
20260510114855 66 30 7.0 0.0 0.00 0.00 0.00 73 1015.0
20260510113353 66 30 7.0 0.0 0.00 0.00 0.00 73 1015.0
20260510111850 66 30 7.0 0.0 0.00 0.00 0.00 73 1015.0
20260510110350 66 30 7.0 0.0 0.00 0.00 0.00 73 1015.0
20260510104854 66 40 9.0 0.0 0.00 0.00 0.00 37 1015.0
20260510103354 66 40 9.0 0.0 0.00 0.00 0.00 37 1015.0
20260510101853 66 40 9.0 0.0 0.00 0.00 0.00 37 1015.0
20260510100401 66 40 9.0 0.0 0.00 0.00 0.00 37 1015.0
20260510094855 63 20 5.0 0.0 0.00 0.00 0.00 88 1016.0
20260510093354 63 20 5.0 0.0 0.00 0.00 0.00 88 1016.0
20260510091900 63 20 5.0 0.0 0.00 0.00 0.00 88 1016.0
20260510090354 63 20 5.0 0.0 0.00 0.00 0.00 88 1016.0
20260510084850 59 330 5.0 0.0 0.00 0.00 0.00 94 1016.0
20260510083353 59 330 5.0 0.0 0.00 0.00 0.00 94 1016.0
20260510081853 59 330 5.0 0.0 0.00 0.00 0.00 94 1016.0
20260510080353 59 330 5.0 0.0 0.00 0.00 0.00 94 1016.0
20260510074853 59 280 7.0 0.0 0.00 0.00 0.00 100 1016.0
20260510073403 59 280 7.0 0.0 0.00 0.00 0.00 100 1016.0
20260510071849 59 280 7.0 0.0 0.00 0.00 0.00 100 1016.0
20260510070355 59 280 7.0 0.0 0.00 0.00 0.00 100 1016.0
20260510064849 55 280 3.0 0.0 0.00 0.00 0.00 88 1015.0
20260510063353 55 280 3.0 0.0 0.00 0.00 0.00 88 1015.0
20260510061850 55 280 3.0 0.0 0.00 0.00 0.00 88 1015.0
20260510060353 55 280 3.0 0.0 0.00 0.00 0.00 88 1015.0
20260510054850 52 40 7.0 0.0 0.00 0.00 0.00 94 1015.0
20260510053401 52 40 7.0 0.0 0.00 0.00 0.00 94 1015.0
20260510051853 52 40 7.0 0.0 0.00 0.00 0.00 94 1015.0
20260510050353 52 40 7.0 0.0 0.00 0.00 0.00 94 1015.0
20260510044851 52 3.0 0.0 0.00 0.00 0.00 94 1015.0
20260510043353 52 3.0 0.0 0.00 0.00 0.00 94 1015.0
20260510041853 52 3.0 0.0 0.00 0.00 0.00 94 1015.0
20260510040353 52 3.0 0.0 0.00 0.00 0.00 94 1015.0
20260510034847 52 3.0 0.0 0.00 0.00 0.00 94 1015.0
20260510033359 52 3.0 0.0 0.00 0.00 0.00 94 1015.0
20260510031851 52 3.0 0.0 0.00 0.00 0.00 94 1015.0
20260510030354 52 3.0 0.0 0.00 0.00 0.00 94 1015.0
20260510024848 52 3.0 0.0 0.00 0.00 0.00 94 1017.0
20260510023354 52 3.0 0.0 0.00 0.00 0.00 94 1017.0
20260510021847 52 3.0 0.0 0.00 0.00 0.00 94 1017.0
20260510020353 52 3.0 0.0 0.00 0.00 0.00 94 1017.0
20260510014851 52 3.0 0.0 0.00 0.00 0.00 94 1017.0
20260510013353 0 0.0 0.0 0.00 0.00 0.00
20260510011850 0 0.0 0.0 0.00 0.00 0.00
20260510010354 0 0.0 0.0 0.00 0.00 0.00
20260510004850 54 3.0 0.0 0.00 0.00 0.00 88 1017.0
20260510003353 54 3.0 0.0 0.00 0.00 0.00 88 1017.0
20260510001850 54 3.0 0.0 0.00 0.00 0.00 88 1017.0
20260510000353 54 3.0 0.0 0.00 0.00 0.00 88 1017.0
20260509234851 0 0.0 0.0 0.00 0.00 0.00
20260509233408 0 0.0 0.0 0.00 0.00 0.00
20260509231850 0 0.0 0.0 0.00 0.00 0.00
20260509230353 0 0.0 0.0 0.00 0.00 0.00
20260509224848 55 3.0 0.0 0.00 0.00 0.00 100 1016.0
20260509223353 55 3.0 0.0 0.00 0.00 0.00 100 1016.0
20260509221844 55 3.0 0.0 0.00 0.00 0.00 100 1016.0
20260509220350 0 0.0 0.0 0.00 0.00 0.00
20260509214848 55 3.0 0.0 0.00 0.00 0.00 100 1016.0
20260509213353 55 3.0 0.0 0.00 0.00 0.00 100 1016.0
20260509211848 0 0.0 0.0 0.00 0.00 0.00
20260509210353 0 0.0 0.0 0.00 0.00 0.00
20260509204900 57 3.0 0.0 0.00 0.00 0.00 100 1016.0
20260509203354 57 3.0 0.0 0.00 0.00 0.00 100 1016.0
20260509201851 57 3.0 0.0 0.00 0.00 0.00 100 1016.0
20260509200353 0 0.0 0.0 0.00 0.00 0.00
20260509194851 57 10 5.0 0.0 0.00 0.00 0.00 94 1016.0
20260509193353 57 10 5.0 0.0 0.00 0.00 0.00 94 1016.0
20260509191850 57 10 5.0 0.0 0.00 0.00 0.00 94 1016.0
20260509190353 57 10 5.0 0.0 0.00 0.00 0.00 94 1016.0
20260509184853 59 20 5.0 0.0 0.00 0.00 0.00 94 1015.0
20260509183354 59 20 5.0 0.0 0.00 0.00 0.00 94 1015.0
20260509181854 59 20 5.0 0.0 0.00 0.00 0.00 94 1015.0
20260509180354 59 20 5.0 0.0 0.00 0.00 0.00 94 1015.0
20260509174854 59 60 7.0 0.0 0.00 0.00 0.00 100 1015.0
20260509173355 59 60 7.0 0.0 0.00 0.00 0.00 100 1015.0
20260509171851 59 60 7.0 0.0 0.00 0.00 0.00 100 1015.0